This demonstration page uses our WeatherBlox Daily Observations layout. Learn more.

Hourly Observations for August 11, 2020

Temp ( °F °C ) Dew Point ( °F °C ) Humidity (%) Winds ( mph kmh ) Pressure ( in mb ) Visibility ( mi km ) Precip ( " mm )
12:15 am 00:15 Clear 72 22 72 22 100 100 ESE 5 7 30 1016 10 16.0934 0 0
12:35 am 00:35 Clear 73 23 72 22 94 94 SSE 3 6 30 1016 10 16.0934 0 0
12:55 am 00:55 Clear 72 22 70 21 94 94 Calm 30 1016 10 16.0934 0 0
1:15 am 01:15 Clear 72 22 70 21 94 94 Calm 29.99 1016 10 16.0934 0 0
1:35 am 01:35 Clear 72 22 72 22 100 100 Calm 29.99 1016 10 16.0934 0 0
1:55 am 01:55 Clear 70 21 70 21 100 100 Calm 29.99 1016 10 16.0934 0 0
2:15 am 02:15 Clear 70 21 70 21 100 100 Calm 29.99 1016 10 16.0934 0 0
2:35 am 02:35 Clear 72 22 70 21 94 94 Calm 29.99 1016 10 16.0934 0 0
2:55 am 02:55 Clear 70 21 70 21 100 100 Calm 29.99 1016 10 16.0934 0 0
3:15 am 03:15 Clear 70 21 70 21 100 100 Calm 29.97 1015 10 16.0934 0 0
3:35 am 03:35 Clear 70 21 70 21 100 100 Calm 29.96 1015 10 16.0934 0 0
3:55 am 03:55 Clear 68 20 68 20 100 100 Calm 29.96 1015 10 16.0934 0 0
4:15 am 04:15 Clear 68 20 68 20 100 100 Calm 29.96 1015 10 16.0934 0 0
4:35 am 04:35 Clear 68 20 68 20 100 100 NNW 3 6 29.96 1015 10 16.0934 0 0
4:55 am 04:55 Clear 68 20 68 20 100 100 Calm 29.95 1014 10 16.0934 0 0
5:15 am 05:15 Clear 68 20 68 20 100 100 Calm 29.95 1014 10 16.0934 0 0
5:35 am 05:35 Clear 70 21 68 20 94 94 Calm 29.95 1014 10 16.0934 0 0
5:55 am 05:55 Clear 68 20 68 20 100 100 Calm 29.96 1015 10 16.0934 0 0
6:15 am 06:15 Partly Cloudy 66 19 66 19 100 100 Calm 29.96 1015 10 16.0934 0 0
6:35 am 06:35 Cloudy 68 20 68 20 100 100 Calm 29.97 1015 10 16.0934 0 0
6:55 am 06:55 Cloudy 68 20 68 20 100 100 Calm 29.97 1015 10 16.0934 0 0
7:15 am 07:15 Cloudy 68 20 68 20 100 100 S 3 6 29.97 1015 7 11.26538 0 0
7:35 am 07:35 Cloudy 68 20 68 20 100 100 Calm 29.97 1015 2.5 4.02335 0 0
7:55 am 07:55 Cloudy 68 20 68 20 100 100 SW 3 6 29.98 1015 2 3.21868 0 0
8:15 am 08:15 Cloudy 68 20 68 20 100 100 W 3 6 29.98 1015 0.5 0.80467 0 0
8:35 am 08:35 Cloudy 68 20 68 20 100 100 Calm 29.98 1015 1.5 2.41401 0 0
8:55 am 08:55 Cloudy 68 20 68 20 100 100 Calm 29.99 1016 4 6.43736 0 0
9:15 am 09:15 Cloudy 70 21 70 21 100 100 Calm 29.99 1016 5 8.0467 0 0
9:35 am 09:35 Mostly Cloudy 72 22 70 21 94 94 Calm 29.99 1016 7 11.26538 0 0
9:55 am 09:55 Partly Cloudy 73 23 70 21 89 89 Calm 30 1016 10 16.0934 0 0
10:15 am 10:15 Partly Cloudy 77 25 70 21 79 79 SSW 3 6 29.99 1016 10 16.0934 0 0
10:35 am 10:35 Sunny 79 26 72 22 79 79 SSE 3 6 29.99 1016 10 16.0934 0 0
10:55 am 10:55 Sunny 79 26 72 22 79 79 S 8 13 29.99 1016 10 16.0934 0 0
11:15 am 11:15 Sunny 81 27 72 22 74 74 SSE 8 13 29.99 1016 10 16.0934 0 0
11:35 am 11:35 Partly Cloudy 82 28 73 23 74 74 SW 6 9 29.99 1016 10 16.0934 0 0
11:55 am 11:55 Partly Cloudy 82 28 72 22 70 70 SW 7 11 29.98 1015 10 16.0934 0 0
12:15 pm 12:15 Partly Cloudy 84 29 73 23 70 70 S 6 9 29.98 1015 10 16.0934 0 0
12:35 pm 12:35 Partly Cloudy 84 29 72 22 66 66 WSW 3 6 29.97 1015 10 16.0934 0 0
12:55 pm 12:55 Partly Cloudy 86 30 73 23 66 66 S 5 7 29.96 1014 10 16.0934 0 0
1:15 pm 13:15 Partly Cloudy 88 31 72 22 59 59 S 6 9 29.96 1014 10 16.0934 0 0
1:35 pm 13:35 Sunny 88 31 72 22 59 59 S 6 9 29.95 1014 10 16.0934 0 0
1:55 pm 13:55 Partly Cloudy 88 31 72 22 59 59 S 9 15 29.95 1014 10 16.0934 0 0
2:15 pm 14:15 Partly Cloudy 90 32 72 22 55 55 S 8 13 29.94 1014 10 16.0934 0 0
2:35 pm 14:35 Sunny 90 32 70 21 52 52 S 6 9 29.93 1013 10 16.0934 0 0
2:55 pm 14:55 Sunny 90 32 72 22 55 55 SW 6 9 29.93 1013 10 16.0934 0 0
3:15 pm 15:15 Sunny 90 32 70 21 52 52 S 8 13 29.92 1013 10 16.0934 0 0
3:35 pm 15:35 Sunny 91 33 70 21 49 49 SW 7 11 29.91 1013 10 16.0934 0 0
3:55 pm 15:55 Sunny 91 33 70 21 49 49 SW 6 9 29.91 1013 10 16.0934 0 0
4:15 pm 16:15 Sunny 90 32 70 21 52 52 SW 6 9 29.92 1013 10 16.0934 0 0
4:35 pm 16:35 Partly Cloudy 90 32 70 21 52 52 W 7 11 29.91 1013 10 16.0934 0 0
4:55 pm 16:55 Sunny 91 33 70 21 49 49 SW 8 13 29.91 1013 10 16.0934 0 0
5:15 pm 17:15 Partly Cloudy 91 33 72 22 52 52 SSW 5 7 29.9 1013 10 16.0934 0 0
5:35 pm 17:35 Sunny 90 32 73 23 59 59 WSW 7 11 29.92 1013 10 16.0934 0 0
5:55 pm 17:55 Sunny 90 32 72 22 55 55 SW 7 11 29.92 1013 10 16.0934 0 0
6:15 pm 18:15 Sunny 90 32 73 23 59 59 SW 5 7 29.91 1013 10 16.0934 0 0
6:35 pm 18:35 Sunny 88 31 73 23 62 62 SW 5 7 29.91 1013 10 16.0934 0 0
6:55 pm 18:55 Sunny 86 30 73 23 66 66 SW 5 7 29.91 1013 10 16.0934 0 0
7:15 pm 19:15 Sunny 86 30 73 23 66 66 SW 3 6 29.91 1013 10 16.0934 0 0
7:35 pm 19:35 Sunny 86 30 73 23 66 66 SW 3 6 29.92 1013 10 16.0934 0 0
7:55 pm 19:55 Sunny 86 30 73 23 66 66 SSW 3 6 29.92 1013 10 16.0934 0 0
8:15 pm 20:15 Clear 84 29 73 23 70 70 SW 3 6 29.92 1013 10 16.0934 0 0
8:35 pm 20:35 Clear 82 28 73 23 74 74 Calm 29.93 1014 10 16.0934 0 0
8:55 pm 20:55 Clear 82 28 73 23 74 74 Calm 29.93 1014 10 16.0934 0 0
9:15 pm 21:15 Clear 82 28 73 23 74 74 SW 3 6 29.93 1014 10 16.0934 0 0
9:35 pm 21:35 Clear 82 28 73 23 74 74 Calm 29.94 1014 10 16.0934 0 0
9:55 pm 21:55 Clear 81 27 73 23 79 79 SSW 3 6 29.94 1014 10 16.0934 0 0
10:15 pm 22:15 Clear 81 27 73 23 79 79 SSW 3 6 29.95 1014 10 16.0934 0 0
10:35 pm 22:35 Clear 79 26 73 23 84 84 SW 3 6 29.95 1014 10 16.0934 0 0
10:55 pm 22:55 Clear 79 26 73 23 84 84 SW 3 6 29.95 1014 10 16.0934 0 0
11:15 pm 23:15 Clear 79 26 73 23 84 84 SW 3 6 29.96 1015 10 16.0934 0 0
11:35 pm 23:35 Clear 79 26 73 23 84 84 Calm 29.96 1015 10 16.0934 0 0
11:55 pm 23:55 Clear 79 26 73 23 84 84 S 5 7 29.96 1015 10 16.0934 0 0

Powered by AerisWeather